Location: CARMA
(37.2805°N, 118.1419°W)
Time: 02:22:23
(UTC-07:00)

Daily predictions for brighter satellites

Satellite Brightness Start Highest point End
(mag) Time Altitude Azimuth Time Altitude Azimuth Time Altitude Azimuth
Cosmos 2360 Rocket 4.2 03:09:38 23° ENE 03:09:38 23° ENE 03:12:09 10° NE
ADEOS Rocket 4.4 03:21:27 10° NNE 03:24:09 30° NNE 03:24:09 30° NNE
CENTAUR R/B 4.0 03:30:50 29° N 03:30:50 29° N 03:34:55 10° NNE
ARIANE 5 R/B 4.5 03:53:01 10° N 03:54:43 20° N 03:54:43 20° N
SL-16 R/B 4.4 04:03:34 18° NNW 04:03:34 18° NNW 04:05:02 10° NNW
MOS 1 Rocket 4.2 04:09:35 10° NNE 04:12:55 44° NE 04:12:55 44° NE
CZ-4B R/B 4.4 04:11:52 10° NNE 04:17:06 38° E 04:20:11 21° SSE
Cosmos 2074 Rocket 3.9 04:13:19 10° N 04:19:36 90° E 04:20:25 70° S
MOS 1-B 4.2 04:14:35 10° NNE 04:20:26 88° WNW 04:20:26 88° WNW
Cosmos 2322 Rocket 4.0 04:22:34 19° NNW 04:22:34 19° NNW 04:25:04 10° N
SL-16 R/B 4.0 04:27:54 19° NNW 04:27:54 19° NNW 04:30:33 10° N
Cosmos 2237 4.0 04:30:31 80° WSW 04:30:47 84° WNW 04:36:34 10° NNE
Okean O Rocket 2.0 04:26:59 10° NNE 04:31:24 61° E 04:31:30 61° ESE
Resurs 1-4 Rocket 4.0 04:28:45 10° NNW 04:30:22 17° NNW 04:30:22 17° NNW
Cosmos 2219 Rocket 3.2 04:30:15 25° SSE 04:33:02 42° ESE 04:38:16 10° NE
COSMOS 2428 2.6 04:34:00 63° S 04:34:55 82° ESE 04:40:38 10° NNE
CZ-2D R/B 4.0 04:31:23 10° NNW 04:33:28 18° NW 04:33:28 18° NW
Lacrosse 4 Rocket 3.1 04:40:03 24° SSE 04:40:03 24° SSE 04:41:51 10° SSE
Cosmos 1844 Rocket 3.5 04:36:56 10° NNW 04:42:22 50° ENE 04:47:45 10° SE
Cosmos 1455 Rocket 4.4 04:38:40 10° NNW 04:40:51 28° NNW 04:40:51 28° NNW
DELTA 2 R/B (1) 3.4 04:43:29 66° W 04:44:16 83° NNW 04:49:51 10° ENE
Cosmos 2360 Rocket 3.1 04:51:24 32° NW 04:51:24 32° NW 04:56:09 10° N
Cosmos 2184 Rocket 4.2 04:50:19 10° NNW 04:56:13 47° W 04:57:24 42° WSW
ADEOS II 2.0 04:51:35 10° NNE 04:56:52 89° WNW 04:59:40 29° SSW
Meteor 1-19 Rocket 4.3 04:53:21 17° S 04:57:49 78° E 05:03:32 10° NNE
Cosmos 2278 Rocket 4.2 04:53:04 10° N 04:57:58 29° ENE 05:02:50 10° ESE
Cosmos 2237 Rocket 3.3 04:55:45 10° S 05:01:03 42° ESE 05:06:24 10° NE
Cosmos 1666 3.6 05:01:07 10° N 05:04:53 50° E 05:08:40 10° SSE
Gblst 52 Del rocket 4.3 05:01:40 16° NW 05:06:22 85° NE 05:12:49 10° SE
Cosmos 1536 Rocket 4.2 05:07:24 37° WNW 05:07:24 37° WNW 05:11:05 10° N
Meteor 2-4 Rocket 4.0 05:02:29 10° S 05:08:02 67° E 05:13:28 10° NNE
ATLAS 5 CENTAUR R/B 3.7 05:05:11 10° NNW 05:10:52 41° NE 05:16:58 10° ESE
Cosmos 2208 Rocket 4.4 05:09:58 38° WSW 05:11:26 47° WNW 05:16:42 10° N
Cosmos 1743 2.5 05:08:42 10° NNW 05:12:33 70° W 05:15:26 17° S
MTI 3.9 05:13:10 57° NW 05:13:10 57° NW 05:16:02 10° NNW
Cosmos 962 Rocket 4.5 05:07:32 10° N 05:13:51 90° W 05:20:12 10° S
OAO 3 Copernicus 4.3 05:13:43 39° WSW 05:15:31 69° S 05:20:31 10° E
GOES 2 Rocket 4.4 05:17:58 26° SSW 05:19:29 31° S 05:24:31 10° ESE
USA 215 3.2 05:13:33 10° SE 05:20:08 84° SW 05:26:44 10° NW
CZ-4B R/B 3.6 05:17:41 10° N 05:20:24 29° NW 05:20:24 29° NW
PSLV R/B 3.7 05:16:52 10° N 05:21:06 51° WNW 05:22:57 30° SW
PAYLOAD B 4.4 05:15:54 10° N 05:21:19 51° WNW 05:24:48 21° SW
Cosmos 2333 Rocket 2.2 05:17:45 15° SSW 05:22:36 89° WNW 05:28:22 10° NNE
Meteor 1-31 Rocket 3.2 05:19:02 10° NNE 05:22:49 62° E 05:26:34 10° S
EXPRESS MD2 4.4 05:19:52 17° SSW 05:23:46 42° SE 05:26:52 10° ENE
Cosmos 1867 4.4 05:19:58 10° NNW 05:25:19 53° NE 05:30:36 10° SE
EO 1 Del DPAF 3.6 05:24:02 20° SSW 05:26:16 41° W 05:29:57 10° NNW
Okean 1-7 Rocket 3.5 05:23:10 10° SSW 05:27:41 73° W 05:32:11 10° N
OTV 4 2.6 05:27:14 14° S 05:28:05 16° SSE 05:29:54 10° ESE
RUBIN 8/PSLV 4.5 05:24:36 10° NNE 05:28:54 89° WNW 05:33:12 10° SSW
Cosmos 2154 Rocket 4.2 05:24:19 10° NNW 05:30:13 48° W 05:36:07 10° SSW
USA 229 DEB 3.7 05:25:44 19° SW 05:30:44 69° NW 05:37:40 10° NNE
USA 229 3.7 05:25:48 19° SW 05:30:50 69° NW 05:37:46 10° NNE
Feng Yun 1-1 Rocket 4.5 05:26:58 10° NNE 05:32:50 77° ESE 05:38:30 10° S
Meteor PRIRODA 3.7 05:31:53 10° N 05:35:35 60° WNW 05:38:59 12° SSW
Hubble Space Telescope 2.9 05:35:11 12° SSW 05:37:25 17° SSE 05:40:04 10° SE
Thor Agena Rocket 4.0 05:35:09 10° SSE 05:40:08 65° ENE 05:45:09 10° N
Cosmos 1606 Rocket 4.1 05:35:46 10° N 05:40:14 64° E 05:44:39 10° SSE
Tiangong 2 0.9 05:38:50 28° WNW 05:40:19 72° SSW 05:43:26 10° ESE
NOSS 3-1 (A) 4.5 05:37:53 10° S 05:43:16 44° ESE 05:49:09 10° NE
Iridium 2 3.7 05:40:21 10° N 05:44:12 84° E 05:48:01 10° S
Cosmos 2150 Rocket 4.1 05:39:55 10° NNW 05:45:15 84° ENE 05:50:38 10° SSE
NOSS 3-1 (C) 3.7 05:40:06 10° SSW 05:45:43 65° ESE 05:51:56 10° NE
Cosmos 468 Rocket 4.2 05:42:38 11° SW 05:47:32 51° WNW 05:52:38 10° N
GPS 2-04 Rocket1 3.4 05:45:09 17° SW 05:47:46 41° SSE 05:51:22 10° E
Cosmos 2181 Rocket 4.2 05:43:28 10° SSW 05:49:26 49° W 05:55:31 10° N
SL-8 Rocket 3.9 05:43:45 10° N 05:49:58 77° W 05:56:06 10° S
Cosmos 1898 Rocket 3.4 05:45:44 10° NNW 05:50:52 65° WSW 05:55:58 10° S
Cosmos 1844 3.8 05:45:33 10° NNW 05:51:09 55° WSW 05:56:39 10° S
ERS-2 2.6 05:50:48 10° N 05:54:17 40° WNW 05:57:44 10° SW
CZ-4B R/B 4.2 05:52:47 10° N 05:57:25 27° WNW 06:01:59 10° WSW
SL-16 R/B 3.0 05:52:05 10° S 05:57:34 54° ESE 06:03:05 10° NNE
Cosmos 2228 3.8 06:00:11 10° N 06:04:27 57° E 06:08:44 10° SSE
Cosmos 405 4.3 06:02:52 10° N 06:06:17 44° E 06:09:42 10° SSE
Okean O Rocket 3.6 06:05:35 10° NW 06:07:14 12° WNW 06:08:52 10° W
Cosmos 1980 4.0 06:02:41 10° SW 06:08:06 46° WNW 06:13:31 10° N
Cosmos 1437 3.4 06:05:22 10° SW 06:08:23 34° WNW 06:11:25 10° N
COSMO-SKYMED 1 2.8 06:04:33 10° SSE 06:08:53 79° ENE 06:13:14 10° N
Cosmos 1025 Rocket 3.9 06:07:36 10° SW 06:11:24 28° WNW 06:15:13 10° NNW
Cosmos 1763 Rocket 3.6 06:09:51 10° SSW 06:14:48 55° WNW 06:19:50 10° N
Cosmos 1726 Rocket 3.6 06:10:45 10° NNW 06:15:09 60° W 06:19:32 10° S
Cosmos 2219 Rocket 3.3 06:12:36 10° WSW 06:17:06 25° WNW 06:21:40 10° N
Cosmos 2218 Rocket 4.1 06:11:02 10° NNW 06:17:14 56° W 06:23:22 10° SSW
Meteor 1-28 Rocket 3.4 06:13:49 10° SSE 06:17:36 79° ENE 06:21:26 10° N
Cosmos 1937 Rocket 3.7 06:14:46 10° NNW 06:19:53 49° WSW 06:24:57 10° S
COSMOS 2428 4.5 06:16:53 10° W 06:19:54 14° NW 06:22:56 10° NNW
Okean-O 3.5 06:17:45 10° N 06:21:35 29° WNW 06:25:24 10° SW
Cosmos 1892 Rocket 3.9 06:18:26 10° SSW 06:22:33 43° W 06:26:44 10° N
Cosmos 1809 Rocket 4.5 06:17:24 10° NNW 06:23:33 67° W 06:29:38 10° S
Cosmos 1844 Rocket 3.9 06:21:57 10° NW 06:25:47 19° W 06:29:36 10° SW
Timation 1 Rocket 4.4 06:20:23 10° NNW 06:26:24 82° WSW 06:32:22 10° SSE
BREEZE M DEB (TANK) 2.6 06:21:15 10° NW 06:28:39 86° NE 06:31:26 10° SE
